TimeEST,TemperatureF,Dew PointF,Humidity,Sea Level PressureIn,VisibilityMPH,Wind Direction,Wind SpeedMPH,Gust SpeedMPH,PrecipitationIn,Events,Conditions,WindDirDegrees,DateUTC
12:15 AM,32.0,17.6,55,30.05,10.0,WSW,5.8,-,N/A,,Overcast,240,2013-01-01 05:15:00
12:35 AM,33.8,17.6,52,30.06,10.0,WSW,6.9,-,N/A,,Overcast,240,2013-01-01 05:35:00
12:55 AM,33.8,17.6,52,30.05,10.0,WSW,4.6,-,N/A,,Overcast,240,2013-01-01 05:55:00
1:15 AM,32.0,17.6,55,30.04,10.0,West,6.9,-,N/A,,Overcast,260,2013-01-01 06:15:00
1:35 AM,32.0,17.6,55,30.04,10.0,West,3.5,-,N/A,,Overcast,260,2013-01-01 06:35:00
1:55 AM,32.0,19.4,60,30.04,10.0,WNW,3.5,-,N/A,,Light Drizzle,300,2013-01-01 06:55:00
2:15 AM,32.0,19.4,60,30.04,10.0,WNW,6.9,-,N/A,,Overcast,290,2013-01-01 07:15:00
2:35 AM,32.0,21.2,64,30.06,10.0,West,8.1,-,N/A,,Overcast,280,2013-01-01 07:35:00
2:55 AM,32.0,21.2,64,30.06,10.0,WSW,6.9,-,N/A,,Overcast,250,2013-01-01 07:55:00
3:15 AM,32.0,21.2,64,30.05,10.0,West,8.1,-,N/A,,Overcast,270,2013-01-01 08:15:00
3:35 AM,32.0,23.0,69,30.04,10.0,West,4.6,-,N/A,,Overcast,270,2013-01-01 08:35:00
4:15 AM,30.2,23.0,75,30.03,7.0,Calm,Calm,-,N/A,Snow,Light Snow,0,2013-01-01 09:15:00
4:35 AM,30.2,24.8,80,30.03,10.0,Calm,Calm,-,N/A,Snow,Light Snow,0,2013-01-01 09:35:00
4:55 AM,30.2,24.8,80,30.01,7.0,WSW,4.6,-,N/A,Snow,Light Snow,240,2013-01-01 09:55:00
5:15 AM,30.2,26.6,86,30.00,7.0,SW,4.6,-,N/A,Snow,Light Snow,230,2013-01-01 10:15:00
5:35 AM,30.2,26.6,86,30.00,10.0,SW,4.6,-,N/A,,Overcast,230,2013-01-01 10:35:00
5:55 AM,30.2,26.6,86,30.00,10.0,SW,5.8,-,N/A,,Overcast,230,2013-01-01 10:55:00
6:15 AM,30.2,26.6,86,29.99,10.0,SW,5.8,-,N/A,,Overcast,230,2013-01-01 11:15:00
6:35 AM,30.2,26.6,86,29.99,10.0,SW,5.8,-,N/A,,Overcast,230,2013-01-01 11:35:00
6:55 AM,30.2,28.4,93,29.99,10.0,WSW,3.5,-,N/A,,Overcast,240,2013-01-01 11:55:00
7:15 AM,30.2,28.4,93,29.99,5.0,Calm,Calm,-,N/A,,Overcast,0,2013-01-01 12:15:00
7:35 AM,30.2,28.4,93,29.98,3.0,SW,3.5,-,N/A,,Overcast,220,2013-01-01 12:35:00
7:55 AM,30.2,28.4,93,29.99,4.0,SW,4.6,-,N/A,,Overcast,230,2013-01-01 12:55:00
8:15 AM,30.2,28.4,93,30.00,1.8,WSW,3.5,-,N/A,,Overcast,240,2013-01-01 13:15:00
8:35 AM,30.2,28.4,93,29.98,2.0,SW,3.5,-,N/A,,Overcast,230,2013-01-01 13:35:00
8:55 AM,30.2,28.4,93,30.00,2.0,WSW,3.5,-,N/A,,Overcast,240,2013-01-01 13:55:00
9:15 AM,30.2,28.4,93,29.97,1.5,South,3.5,-,N/A,,Overcast,170,2013-01-01 14:15:00
9:35 AM,30.2,28.4,93,30.01,2.0,Calm,Calm,-,N/A,,Overcast,0,2013-01-01 14:35:00
10:15 AM,32.0,30.2,93,30.00,1.8,Calm,Calm,-,N/A,,Overcast,0,2013-01-01 15:15:00
10:35 AM,32.0,30.2,93,30.00,3.0,Calm,Calm,-,N/A,,Overcast,0,2013-01-01 15:35:00
10:55 AM,32.0,30.2,93,29.99,3.0,Calm,Calm,-,N/A,,Overcast,0,2013-01-01 15:55:00
11:15 AM,32.0,32.0,100,29.99,5.0,NW,4.6,-,N/A,,Overcast,310,2013-01-01 16:15:00
11:35 AM,32.0,30.2,93,29.97,10.0,WSW,5.8,-,N/A,,Overcast,250,2013-01-01 16:35:00
11:55 AM,32.0,30.2,93,29.97,10.0,WNW,3.5,-,N/A,,Overcast,300,2013-01-01 16:55:00
12:15 PM,32.0,30.2,93,29.96,5.0,West,4.6,-,N/A,,Overcast,270,2013-01-01 17:15:00
12:35 PM,32.0,30.2,93,29.94,7.0,Calm,Calm,-,N/A,,Overcast,0,2013-01-01 17:35:00
12:55 PM,32.0,30.2,93,29.94,10.0,West,4.6,-,N/A,,Overcast,260,2013-01-01 17:55:00
1:15 PM,32.0,30.2,93,29.92,10.0,WSW,4.6,-,N/A,,Overcast,240,2013-01-01 18:15:00
1:35 PM,32.0,30.2,93,29.92,10.0,West,4.6,-,N/A,,Overcast,280,2013-01-01 18:35:00
1:55 PM,32.0,30.2,93,29.91,10.0,West,3.5,-,N/A,,Overcast,280,2013-01-01 18:55:00
2:15 PM,32.0,30.2,93,29.92,10.0,West,6.9,-,N/A,,Overcast,280,2013-01-01 19:15:00
2:35 PM,32.0,30.2,93,29.92,10.0,West,3.5,-,N/A,,Overcast,280,2013-01-01 19:35:00
3:15 PM,32.0,30.2,93,29.94,10.0,West,6.9,-,N/A,,Overcast,260,2013-01-01 20:15:00
3:35 PM,32.0,30.2,93,29.94,10.0,West,5.8,-,N/A,,Overcast,260,2013-01-01 20:35:00
4:15 PM,32.0,28.4,87,29.96,10.0,West,8.1,-,N/A,,Overcast,260,2013-01-01 21:15:00
4:35 PM,32.0,28.4,87,29.96,10.0,West,10.4,-,N/A,,Overcast,260,2013-01-01 21:35:00
4:55 PM,32.0,28.4,87,29.96,10.0,West,6.9,-,N/A,,Overcast,260,2013-01-01 21:55:00
5:15 PM,32.0,28.4,87,29.96,10.0,West,6.9,-,N/A,,Overcast,260,2013-01-01 22:15:00
5:35 PM,32.0,28.4,87,29.96,10.0,West,6.9,-,N/A,,Overcast,270,2013-01-01 22:35:00
5:55 PM,32.0,28.4,87,29.96,10.0,WSW,5.8,-,N/A,,Overcast,250,2013-01-01 22:55:00
6:15 PM,32.0,28.4,87,29.97,10.0,WSW,4.6,-,N/A,,Overcast,250,2013-01-01 23:15:00
6:35 PM,32.0,28.4,87,29.96,10.0,West,3.5,-,N/A,,Overcast,280,2013-01-01 23:35:00
6:55 PM,32.0,28.4,87,29.96,10.0,West,6.9,-,N/A,,Overcast,270,2013-01-01 23:55:00
7:15 PM,30.2,28.4,93,29.96,10.0,West,6.9,-,N/A,,Overcast,280,2013-01-02 00:15:00
7:35 PM,30.2,28.4,93,29.97,10.0,West,3.5,-,N/A,,Overcast,270,2013-01-02 00:35:00
7:55 PM,30.2,28.4,93,29.97,10.0,WSW,4.6,-,N/A,,Overcast,250,2013-01-02 00:55:00
8:15 PM,30.2,28.4,93,29.97,10.0,WSW,4.6,-,N/A,,Overcast,250,2013-01-02 01:15:00
8:35 PM,30.2,28.4,93,29.98,10.0,WNW,3.5,-,N/A,,Overcast,300,2013-01-02 01:35:00
8:55 PM,30.2,26.6,86,29.97,10.0,West,4.6,-,N/A,,Overcast,270,2013-01-02 01:55:00
9:15 PM,30.2,26.6,86,29.98,10.0,WSW,4.6,-,N/A,,Overcast,250,2013-01-02 02:15:00
9:35 PM,30.2,26.6,86,29.98,10.0,WSW,5.8,-,N/A,,Overcast,250,2013-01-02 02:35:00
9:55 PM,30.2,26.6,86,29.97,10.0,West,4.6,-,N/A,,Overcast,260,2013-01-02 02:55:00
10:15 PM,30.2,26.6,86,29.97,10.0,WSW,3.5,-,N/A,,Overcast,250,2013-01-02 03:15:00
10:35 PM,30.2,26.6,86,29.96,10.0,SW,5.8,-,N/A,,Overcast,220,2013-01-02 03:35:00
10:55 PM,30.2,26.6,86,29.96,10.0,SW,3.5,-,N/A,,Overcast,230,2013-01-02 03:55:00
11:15 PM,30.2,28.4,93,29.97,10.0,WSW,5.8,-,N/A,,Overcast,250,2013-01-02 04:15:00
11:35 PM,30.2,28.4,93,29.97,10.0,West,3.5,-,N/A,,Overcast,260,2013-01-02 04:35:00
11:55 PM,30.2,26.6,86,29.97,10.0,Calm,Calm,-,N/A,Snow,Light Snow,0,2013-01-02 04:55:00